Location: Rounton
(54.4000°N, 1.3500°W)
Time: 05:02:59
(UTC+00:00)

S-56A Canister/Altair - Pass Details

Date: 02 December 2021
Orbit: 633 x 2499 km, 38.9° (Epoch: 17 January)

Event Time Altitude Azimuth Distance (km) Brightness Sun altitude
Rises 00:14:43 0° 212° (SSW) 4,819 - -57.3°
Reaches altitude 10° 00:20:08 10° 190° (S) 3,384 - -57.2°
Maximum altitude 00:23:54 14° 163° (SSE) 2,776 - -57.1°
Drops below altitude 10° 00:27:08 10° 134° (SE) 2,794 - -57.0°
Sets 00:30:48 0° 108° (ESE) 3,447 - -56.9°
